Currently 66°F in Pinon Hills, California, USA
66°F
68°F / 66°F
1 mph W
0.00"
Wednesday, August 22, 2018 12:38 AM PDT

Pinon Hills, California Climate Summary
Typical July Day

Normal High:    92.3°F (33.5°C)
Normal Low:    67.3°F (19.6°C)
Average:    79.8°F (26.6°C)

Hour    Temperature    Wind Speed    Humidity
12:00 AM    73°F (23°C)    2 mph    36%
1:00 AM    72°F (22°C)    2 mph    35%
2:00 AM    71°F (22°C)    2 mph    35%
3:00 AM    71°F (21°C)    2 mph    36%
4:00 AM    70°F (21°C)    2 mph    37%
5:00 AM    69°F (21°C)    2 mph    37%
6:00 AM    69°F (21°C)    2 mph    36%
7:00 AM    73°F (23°C)    1 mph    34%
8:00 AM    78°F (26°C)    1 mph    29%
9:00 AM    81°F (27°C)    1 mph    26%
10:00 AM    83°F (28°C)    1 mph    24%
11:00 AM    86°F (30°C)    2 mph    22%
12:00 PM    87°F (31°C)    2 mph    20%
1:00 PM    89°F (32°C)    2 mph    19%
2:00 PM    90°F (32°C)    2 mph    18%
3:00 PM    91°F (33°C)    2 mph    18%
4:00 PM    90°F (32°C)    3 mph    19%
5:00 PM    89°F (32°C)    4 mph    20%
6:00 PM    88°F (31°C)    4 mph    21%
7:00 PM    85°F (30°C)    5 mph    24%
8:00 PM    82°F (28°C)    4 mph    27%
9:00 PM    78°F (26°C)    3 mph    30%
10:00 PM    76°F (24°C)    2 mph    33%
11:00 PM    74°F (23°C)    2 mph    35%
 

The Pinon Hills, California weather pages are a service of WeatherCurrents.
Copyright ©Wed Aug 22 00:38:59 PDT 2018  WeatherCurrents. All rights reserved. - Submit questions and comments - Privacy Policy